Weather History for KIWI - January, 2014

Change the Weather History Date:

Saturday, January 18, 2014

  Actual Average Record
Temperature  
Mean Temperature 31 °F -  
Max Temperature 36 °F 25 °F 53 °F (2006)
Min Temperature 26 °F 7 °F -15 °F (2003)
Degree Days  
Heating Degree Days 34    
Moisture  
Dew Point 29 °F    
Average Humidity 88    
Maximum Humidity 93    
Minimum Humidity 70    
Precipitation  
Precipitation 0.16 in - - ()
Sea Level Pressure  
Sea Level Pressure 29.75 in    
Wind  
Wind Speed 1 mph (NE)    
Max Wind Speed 6 mph    
Max Gust Speed -    
Visibility 4 miles    
Events Snow    
Averages and records for this station are not official NWS values.
T = Trace of Precipitation, MM = Missing Value Source: NWS Daily Summary

Daily Weather History Graph

Daily Weather History Graph

Search for Another Location

Airport or City:

Trip Planner

Search our weather history database for the weather conditions in past years. The results will help you decide how hot, cold, wet, or windy it might be!

Date:

Astronomy

Jan. 18, 2014 Rise Set
Actual Time 7:08 AM EST 4:30 PM EST
Civil Twilight 6:36 AM EST 5:02 PM EST
Nautical Twilight 6:01 AM EST 5:37 PM EST
Astronomical Twilight 5:26 AM EST 6:12 PM EST
Moon 7:16 PM EST (1/18) 8:00 AM EST (1/18)
Length of Visible Light 10h 25m
Length of Day
9h 22m
Waning Gibbous, 94% of the Moon is Illuminated
Jan 18
Waning Gibbous
Jan 24
Last Quarter
Jan 30
New
Feb 6
First Quarter
Feb 14
Full

Hourly Weather History & Observations

Time (EST) Temp. Windchill Dew Point Humidity Pressure Visibility Wind Dir Wind Speed Gust Speed Precip Events Conditions
12:53 AM 27.0 °F - 25.0 °F 92% 29.93 in 8.0 mi Calm Calm - N/A   Clear
1:53 AM 27.0 °F - 25.0 °F 92% 29.94 in 9.0 mi Calm Calm - N/A   Clear
2:53 AM 26.1 °F - 24.1 °F 92% 29.93 in 8.0 mi Calm Calm - N/A   Clear
3:53 AM 26.1 °F - 23.0 °F 88% 29.92 in 7.0 mi Calm Calm - N/A   Partly Cloudy
4:53 AM 27.0 °F - 25.0 °F 92% 29.91 in 9.0 mi Calm Calm - N/A   Overcast
5:53 AM 27.0 °F - 25.0 °F 92% 29.92 in 9.0 mi Calm Calm - N/A   Scattered Clouds
6:53 AM 28.0 °F - 26.1 °F 92% 29.89 in 8.0 mi Calm Calm - N/A   Mostly Cloudy
7:53 AM 28.9 °F - 27.0 °F 92% 29.89 in 7.0 mi Calm Calm - N/A   Overcast
8:53 AM 30.9 °F - 28.0 °F 89% 29.86 in 10.0 mi Calm Calm - N/A   Overcast
9:53 AM 32.0 °F - 28.9 °F 88% 29.85 in 10.0 mi Calm Calm - N/A   Overcast
10:53 AM 33.1 °F - 28.9 °F 85% 29.83 in 10.0 mi Calm Calm - N/A   Overcast
11:53 AM 35.1 °F 32.2 °F 27.0 °F 72% 29.80 in 10.0 mi NE 3.5 mph - N/A   Overcast
12:53 PM 36.0 °F - 27.0 °F 70% 29.77 in 10.0 mi Calm Calm - N/A   Overcast
1:16 PM 36.0 °F - 27.0 °F 70% 29.73 in 9.0 mi Calm Calm - N/A   Overcast
1:23 PM 36.0 °F - 27.0 °F 70% 29.73 in 10.0 mi Calm Calm - N/A   Overcast
1:45 PM 35.1 °F 32.2 °F 28.0 °F 76% 29.73 in 2.5 mi ENE 3.5 mph - 0.00 in Snow Light Snow
1:53 PM 35.1 °F 30.1 °F 28.0 °F 76% 29.73 in 2.0 mi Variable 5.8 mph - 0.00 in Snow Light Snow
2:05 PM 34.0 °F 31.0 °F 28.9 °F 82% 29.72 in 1.5 mi Variable 3.5 mph - 0.00 in Snow Light Snow
2:30 PM 34.0 °F 29.8 °F 30.0 °F 85% 29.71 in 2.0 mi NE 4.6 mph - 0.00 in Snow Light Snow
2:39 PM 34.0 °F 29.8 °F 30.0 °F 85% 29.71 in 1.8 mi ENE 4.6 mph - 0.00 in Snow Light Snow
2:53 PM 34.0 °F 29.8 °F 30.0 °F 85% 29.71 in 1.8 mi Variable 4.6 mph - 0.00 in Snow Light Snow
3:06 PM 33.1 °F 28.7 °F 30.0 °F 89% 29.71 in 1.8 mi Variable 4.6 mph - 0.00 in Snow Light Snow
3:13 PM 33.1 °F 28.7 °F 30.0 °F 89% 29.71 in 1.8 mi Variable 4.6 mph - 0.00 in Snow Light Snow
3:46 PM 33.1 °F 28.7 °F 30.9 °F 92% 29.71 in 2.0 mi Variable 4.6 mph - 0.00 in Snow Light Snow
3:53 PM 33.1 °F 28.7 °F 30.9 °F 92% 29.71 in 3.0 mi NE 4.6 mph - 0.00 in Snow Light Snow
4:53 PM 33.1 °F 30.0 °F 30.0 °F 89% 29.70 in 4.0 mi Variable 3.5 mph - 0.00 in Snow Light Snow
5:09 PM 33.1 °F 28.7 °F 30.0 °F 89% 29.70 in 2.5 mi Variable 4.6 mph - 0.01 in Snow Light Snow
5:25 PM 33.1 °F 30.0 °F 30.0 °F 89% 29.69 in 1.8 mi Variable 3.5 mph - 0.01 in Snow Light Snow
5:53 PM 33.1 °F - 30.9 °F 92% 29.69 in 1.8 mi Calm Calm - 0.01 in Snow Light Snow
6:10 PM 33.1 °F 28.7 °F 30.9 °F 92% 29.68 in 1.8 mi Variable 4.6 mph - 0.01 in Snow Light Snow
6:33 PM 33.1 °F 30.0 °F 30.9 °F 92% 29.68 in 1.2 mi Variable 3.5 mph - 0.02 in Snow Light Snow
6:53 PM 33.1 °F 28.7 °F 30.9 °F 92% 29.68 in 1.5 mi NNE 4.6 mph - 0.03 in Snow Light Snow
7:53 PM 32.0 °F 28.7 °F 30.0 °F 92% 29.68 in 1.2 mi Variable 3.5 mph - 0.01 in Snow Light Snow
8:27 PM 32.0 °F - 30.0 °F 92% 29.67 in 1.5 mi Calm Calm - 0.02 in Snow Light Snow
8:53 PM 32.0 °F 28.7 °F 30.0 °F 92% 29.68 in 1.2 mi Variable 3.5 mph - 0.03 in Snow Light Snow
9:11 PM 32.0 °F - 30.0 °F 92% 29.67 in 1.0 mi Calm Calm - 0.01 in Snow Light Snow
9:40 PM 32.0 °F - 30.0 °F 92% 29.67 in 0.8 mi Calm Calm - 0.03 in Snow Light Snow
9:53 PM 32.0 °F 28.7 °F 30.0 °F 92% 29.68 in 1.0 mi Variable 3.5 mph - 0.04 in Snow Light Snow
10:17 PM 32.0 °F - 30.0 °F 92% 29.67 in 1.0 mi Calm Calm - 0.01 in Snow Light Snow
10:53 PM 32.0 °F - 30.0 °F 92% 29.69 in 1.8 mi Calm Calm - 0.03 in Snow Light Snow
11:23 PM 32.0 °F - 30.0 °F 92% 29.68 in 1.2 mi Calm Calm - 0.00 in Snow Light Snow
11:49 PM 32.0 °F - 30.2 °F 93% 29.67 in 1.5 mi Calm Calm - 0.01 in Snow Light Snow
11:53 PM 32.0 °F - 30.0 °F 92% 29.68 in 1.8 mi Calm Calm - 0.01 in Snow Light Snow